[[[{"header":{"parameterUnit":"kt","parameterCategory":2,"dx":1,"dy":1,"la1":30.253999710083008,"la2":30.299108505249023,"lo1":-89.0895004272461,"lo2":-89.04439544677734,"nx":28,"ny":28,"refTime":"2022-09-19T21:00:00:Z","depth":0,"parameterNumber":1,"parameterNumberName":"U-component_of_WINDS"},"data":[-2.9836,-2.985,-2.9863,-2.9884,-2.9899,-2.9915,-2.9925,-2.9939,-2.9952,-2.9972,-2.9985,-2.9998,-3.0015,-3.0033,-3.0047,-3.0051,-3.0057,-3.0054,-3.006,-3.0063,-3.0064,-3.0065,-3.0063,-3.0055,-3.0055,-3.0056,-3.0056,-3.0056,-2.9842,-2.9858,-2.9872,-2.9894,-2.9907,-2.9918,-2.9936,-2.9945,-2.9959,-2.9975,-2.9988,-3.0005,-3.002,-3.0037,-3.0053,-3.0059,-3.0064,-3.0062,-3.0062,-3.0064,-3.0068,-3.0066,-3.0058,-3.0058,-3.0058,-3.0058,-3.0058,-3.0058,-2.9857,-2.9864,-2.9885,-2.99,-2.9914,-2.9929,-2.9937,-2.9952,-2.9965,-2.9983,-2.9993,-3.0008,-3.0025,-3.0047,-3.0057,-3.0068,-3.0071,-3.0072,-3.0072,-3.0072,-3.0072,-3.0073,-3.007,-3.007,-3.007,-3.007,-3.007,0,-2.9871,-2.9882,-2.9895,-2.9913,-2.9924,-2.9938,-2.9953,-2.9958,-2.998,-2.9989,-3.0003,-3.0013,-3.0031,-3.0045,-3.006,-3.007,-3.0079,-3.008,-3.0081,-3.0078,-3.0074,-3.0078,-3.0084,-3.008,-3.008,-3.008,-3.008,-3.008,-2.9888,-2.9893,-2.9919,-2.9927,-2.9938,-2.995,-2.9959,-2.9977,-2.9986,-3.0005,-3.0009,-3.0023,-3.0035,-3.0053,-3.0068,-3.008,-3.0085,-3.0083,-3.0086,-3.0084,-3.0086,-3.0086,-3.0088,-3.0081,-3.0081,-3.0081,-3.0081,0,-2.9896,-2.9915,-2.9927,-2.995,-2.9957,-2.9961,-2.9981,-2.9988,-3.0,-3.001,-3.0014,-3.0033,-3.0045,-3.0059,-3.0074,-3.0081,-3.009,-3.0093,-3.0086,-3.0087,-3.0088,-3.0088,-3.0084,-3.0085,-3.0093,-3.0093,-3.0093,0,-2.9917,-2.9923,-2.995,-2.9956,-2.9964,-2.9982,-2.9988,-2.9999,-3.0013,-3.0022,-3.0035,-3.0042,-3.0059,-3.0068,-3.0078,-3.0087,-3.0089,-3.0096,-3.0098,-3.0095,-3.0094,-3.0098,-3.0099,-3.0102,-3.0102,-3.0102,-3.0102,0,-2.9929,-2.9949,-2.9958,-2.9965,-2.9989,-2.9993,-3.0003,-3.0018,-3.0025,-3.0037,-3.0043,-3.0054,-3.0061,-3.0069,-3.0082,-3.0085,-3.0093,-3.0098,-3.0099,-3.0099,-3.0099,-3.0099,-3.0093,-3.0102,-3.0102,-3.0102,-3.0102,0,-2.9948,-2.9961,-2.9971,-2.9992,-2.9996,-3.0001,-3.0016,-3.0023,-3.0037,-3.0045,-3.0053,-3.0063,-3.0071,-3.0076,-3.0087,-3.0087,-3.0092,-3.0098,-3.0098,-3.01,-3.0105,-3.0101,-3.0093,-3.0093,-3.0102,-3.0102,-3.0102,0,-2.9957,-2.9971,-2.9987,-2.9995,-3.0003,-3.002,-3.0025,-3.0037,-3.0047,-3.0055,-3.0065,-3.0073,-3.0079,-3.0084,-3.0087,-3.0097,-3.0098,-3.0098,-3.0108,-3.0108,-3.0106,-3.0099,-3.0094,-3.0093,-3.0102,-3.0102,-3.0102,0,-2.9966,-2.9995,-2.9995,-3.0004,-3.0022,-3.0028,-3.0035,-3.0047,-3.0052,-3.0061,-3.0067,-3.0077,-3.0083,-3.0089,-3.0097,-3.01,-3.0098,-3.0105,-3.0105,-3.0104,-3.0103,-3.0099,-3.0099,-3.0103,-3.0103,-3.0103,-3.0102,0,-2.9994,-3.0002,-3.0003,-3.002,-3.0027,-3.0031,-3.0047,-3.0052,-3.006,-3.007,-3.0077,-3.0087,-3.0097,-3.0099,-3.0105,-3.0107,-3.0109,-3.0114,-3.0119,-3.0114,-3.0114,-3.0114,-3.0118,-3.0118,-3.0118,-3.0118,0,0,-2.9998,-3.001,-3.0024,-3.0031,-3.0038,-3.0053,-3.0057,-3.0064,-3.0078,-3.0082,-3.0086,-3.01,-3.0107,-3.0114,-3.0113,-3.0116,-3.0118,-3.0118,-3.0116,-3.0115,-3.0115,-3.0115,-3.0115,-3.0119,-3.0119,-3.0119,-3.0119,0,-3.0011,-3.0021,-3.0025,-3.0034,-3.0048,-3.0058,-3.0059,-3.0074,-3.008,-3.0086,-3.0096,-3.0102,-3.0111,-3.0118,-3.0123,-3.0118,-3.0125,-3.012,-3.0114,-3.0117,-3.0116,-3.0116,-3.0116,-3.0115,-3.0119,-3.0119,-3.0119,0,-3.0023,-3.0036,-3.0039,-3.0054,-3.0062,-3.0069,-3.0079,-3.0085,-3.0089,-3.0102,-3.0107,-3.0114,-3.0123,-3.0127,-3.0128,-3.0131,-3.0131,-3.0131,-3.0131,-3.0131,-3.0135,-3.0134,-3.0133,-3.0142,-3.0142,-3.0142,0,0,-3.0032,-3.0039,-3.0056,-3.0057,-3.0062,-3.0076,-3.008,-3.0089,-3.0098,-3.0102,-3.011,-3.0118,-3.0124,-3.0127,-3.0133,-3.0134,-3.0137,-3.0134,-3.0133,-3.0132,-3.0131,-3.0135,-3.0134,-3.0142,-3.0142,-3.0142,0,0,-3.0036,-3.0057,-3.0064,-3.0067,-3.0077,-3.0092,-3.0092,-3.01,-3.0107,-3.0107,-3.0119,-3.0121,-3.0124,-3.0129,-3.013,-3.0135,-3.0139,-3.0139,-3.0131,-3.013,-3.0129,-3.0127,-3.014,0,0,0,0,0,-3.0057,-3.0055,-3.0061,-3.0064,-3.008,-3.0089,-3.0091,-3.0102,-3.0107,-3.0106,-3.0115,-3.0121,-3.0133,-3.0134,-3.0136,-3.0134,-3.0144,-3.0144,-3.0143,-3.0133,-3.0132,-3.0131,0,0,0,0,0,0,-3.0058,-3.0061,-3.0061,-3.0076,-3.008,-3.0089,-3.0099,-3.0102,-3.0107,-3.0108,-3.0119,-3.0121,-3.0129,-3.0134,-3.0135,-3.0134,-3.014,-3.0144,-3.0144,-3.0143,-3.0133,-3.0131,-3.013,0,0,0,0,0,-3.0059,-3.0062,-3.0086,-3.0076,-3.008,-3.0094,-3.0099,-3.0102,-3.0106,-3.0118,-3.012,-3.0113,-3.0129,-3.0131,-3.0135,-3.0133,-3.0139,-3.0139,-3.0144,-3.0144,-3.0143,-3.0132,0,0,0,0,0,0,-3.006,-3.0063,-3.0087,-3.0088,-3.0078,-3.0094,-3.0097,-3.0102,-3.0115,-3.0117,-3.0112,-3.0113,-3.0129,-3.013,-3.0131,-3.0132,-3.0138,-3.0139,-3.0139,-3.0144,-3.0143,-3.0143,0,0,0,0,0,0,-3.0062,-3.0064,-3.0087,-3.0088,-3.009,-3.0093,-3.0096,-3.01,-3.0115,-3.0109,-3.011,-3.0113,-3.0126,-3.013,-3.0131,-3.0136,-3.0138,-3.0138,-3.0138,-3.0139,-3.0144,-3.0143,0,0,0,0,0,0,-3.0063,-3.0065,-3.0088,-3.0089,-3.0091,-3.0107,-3.0097,-3.0112,-3.0118,-3.0108,-3.0119,-3.0119,-3.0126,-3.0127,-3.013,-3.0135,-3.0136,-3.0138,-3.0138,-3.0138,-3.0138,0,0,0,0,0,0,0,-3.0064,-3.0048,-3.0079,-3.009,-3.0091,-3.0101,-3.0101,-3.0102,-3.0118,-3.0118,-3.0118,-3.0119,-3.0135,-3.0136,-3.0136,-3.0134,0,0,-3.0138,-3.0138,0,0,0,0,0,0,0,0,-3.0047,-3.0048,-3.0079,-3.0079,-3.0079,-3.0101,-3.0101,-3.0102,-3.0118,-3.0118,-3.0118,-3.0119,-3.0135,-3.0136,-3.0136,0,0,0,0,0,0,0,0,0,0,0,0,0,0,0,-3.0079,-3.0079,0,-3.0101,-3.0101,-3.0102,-3.0118,-3.0118,-3.0118,-3.0119,-3.0136,-3.0136,-3.0136,0,0,0,0,0,0,0,0,0,0,0,0,0,0,0,0,0,0,0,0,0,0,0,0,0,0,0,0,0,0,0,0,0,0,0,0,0,0,0,0,0,0,0,0,0,0,0,0,0,0,0,0,0,0,0,0,0,0,0,0,0,0,0,0,0,0,0,0,0]}],[{"header":{"parameterUnit":"kt","parameterCategory":2,"dx":1,"dy":1,"la1":30.253999710083008,"la2":30.299108505249023,"lo1":-89.0895004272461,"lo2":-89.04439544677734,"nx":28,"ny":28,"refTime":"2022-09-19T21:00:00:Z","depth":0,"parameterNumber":2,"parameterNumberName":"V-component_of_WINDS"},"data":[1.0596,1.091,1.0986,1.1377,1.1511,1.1789,1.1913,1.2079,1.2231,1.2567,1.2774,1.2881,1.306,1.332,1.3544,1.3586,1.3673,1.3724,1.3763,1.3471,1.3436,1.3401,1.3332,1.3743,1.3744,1.4053,1.4056,1.4058,1.0355,1.0492,1.0725,1.1001,1.1198,1.1193,1.1412,1.1576,1.1825,1.2016,1.2227,1.2529,1.2777,1.2945,1.3194,1.3336,1.3347,1.3397,1.3386,1.3412,1.3104,1.303,1.3383,1.3383,1.3383,1.3383,1.3383,1.3383,0.9936,1.0123,1.0338,1.0592,1.0753,1.0937,1.1128,1.1259,1.1486,1.1764,1.1814,1.2097,1.2301,1.2646,1.278,1.2998,1.2956,1.3036,1.3055,1.3071,1.3076,1.2603,1.3046,1.3045,1.3044,1.3044,1.3043,0,0.9652,0.9705,0.9938,1.0191,1.0381,1.0586,1.0787,1.0908,1.1048,1.1231,1.15,1.1668,1.1997,1.2256,1.2512,1.2638,1.2651,1.2664,1.2718,1.2694,1.2635,1.2662,1.2147,1.2651,1.2648,1.2646,1.2644,1.2643,0.9229,0.9444,0.9711,0.9862,0.9995,1.024,1.0401,1.0511,1.0676,1.0939,1.1098,1.1363,1.158,1.1997,1.2149,1.2396,1.2404,1.2586,1.2442,1.2407,1.2399,1.2383,1.24,1.2611,1.2615,1.2618,1.2621,0,0.8981,0.9115,0.9474,0.9721,0.9788,1.0005,1.0214,1.0407,1.0517,1.0797,1.0868,1.1041,1.1304,1.143,1.1758,1.1814,1.2157,1.2163,1.2083,1.2089,1.2258,1.2238,1.2806,1.2882,1.2464,1.2468,1.2471,0,0.8671,0.8951,0.9132,0.9334,0.9644,0.9751,1.0054,1.0181,1.0368,1.0589,1.0629,1.0835,1.0967,1.1189,1.1275,1.1579,1.1644,1.1703,1.1721,1.1698,1.1689,1.1784,1.1762,1.1765,1.1762,1.176,1.1757,0,0.8266,0.8697,0.9026,0.9146,0.9441,0.9592,0.9721,0.9934,1.0094,1.032,1.0423,1.068,1.082,1.1014,1.1121,1.1018,1.1501,1.1382,1.1561,1.1558,1.1661,1.1653,1.2125,1.1754,1.1753,1.1752,1.1751,0,0.8037,0.8271,0.8732,0.8976,0.9085,0.9304,0.9565,0.9783,1.0005,1.0075,1.0255,1.0298,1.0584,1.0452,1.0843,1.0677,1.0809,1.0895,1.0911,1.0942,1.0792,1.1034,1.1477,1.1524,1.0968,1.0962,1.0956,0,0.7532,0.8038,0.8137,0.8574,0.8825,0.8853,0.9097,0.9296,0.9411,0.9636,0.9761,1.002,0.9952,1.005,1.0228,1.0366,1.0583,1.0342,1.0655,1.0665,1.0588,1.0998,1.103,1.1366,1.0875,1.0883,1.089,0,0.7159,0.7524,0.7597,0.7736,0.8024,0.8238,0.852,0.8803,0.8947,0.9172,0.9407,0.9779,0.9738,0.9905,0.997,1.0148,1.0439,1.0083,1.009,1.0136,1.0849,1.0875,1.0932,1.0442,1.0452,1.046,1.0825,0,0.6768,0.7044,0.7247,0.7565,0.7751,0.8038,0.8182,0.8357,0.84,0.8517,0.887,0.9076,0.9365,0.9468,0.9516,0.9887,0.9844,0.9802,0.9685,0.9955,1.0078,1.0129,0.9488,0.9485,0.9483,0.9481,0,0,0.6247,0.6649,0.6755,0.7039,0.7202,0.7233,0.7525,0.7689,0.8021,0.813,0.8066,0.8621,0.8793,0.9206,0.9302,0.9423,0.9499,0.9404,0.9827,0.9865,0.99,1.0029,1.0081,0.9477,0.9476,0.9476,0.9475,0,0.6136,0.6316,0.6608,0.6782,0.7045,0.7158,0.7227,0.7495,0.7585,0.7939,0.7958,0.8189,0.8637,0.8811,0.8958,0.9357,0.9359,0.9436,0.9598,0.98,0.9841,0.9877,1.0012,1.0059,0.947,0.947,0.947,0,0.579,0.5989,0.6147,0.653,0.6705,0.6967,0.6878,0.7164,0.7358,0.7382,0.7733,0.7867,0.8117,0.8495,0.8671,0.8617,0.922,0.9062,0.9079,0.9102,0.9304,0.9353,0.9396,0.8821,0.8818,0.8815,0,0,0.5673,0.5935,0.6187,0.6518,0.6626,0.6801,0.6958,0.7021,0.7248,0.7339,0.7514,0.7732,0.799,0.816,0.8413,0.8809,0.8866,0.8975,0.9006,0.9031,0.9066,0.9274,0.9323,0.8805,0.8804,0.8804,0,0,0.5618,0.5924,0.593,0.6334,0.6549,0.682,0.7015,0.7029,0.7273,0.7257,0.7377,0.7441,0.7797,0.7931,0.7768,0.8372,0.8254,0.8296,0.8273,0.8314,0.8344,0.8304,0.7708,0,0,0,0,0,0.5581,0.5885,0.5887,0.5978,0.6467,0.6817,0.688,0.6987,0.6898,0.7049,0.7196,0.7192,0.7866,0.7724,0.7811,0.7992,0.8665,0.8689,0.8713,0.8777,0.8818,0.8852,0,0,0,0,0,0,0.5618,0.5728,0.588,0.6161,0.6272,0.6808,0.6679,0.6717,0.6884,0.6878,0.7163,0.7201,0.7298,0.7687,0.7764,0.7933,0.7682,0.8674,0.8695,0.8714,0.8791,0.8824,0.8853,0,0,0,0,0,0.5647,0.5736,0.6493,0.6158,0.6254,0.6468,0.6669,0.6699,0.6831,0.7064,0.7101,0.6896,0.73,0.7372,0.7733,0.7896,0.763,0.7658,0.8688,0.8705,0.8719,0.8807,0,0,0,0,0,0,0.5669,0.5766,0.6515,0.6548,0.6053,0.644,0.6505,0.6684,0.7008,0.7048,0.6801,0.6792,0.7305,0.736,0.7415,0.7877,0.7588,0.7616,0.7634,0.8701,0.8714,0.8725,0,0,0,0,0,0,0.5718,0.5793,0.6532,0.6394,0.6413,0.6414,0.6472,0.6797,0.7011,0.6727,0.673,0.6793,0.7222,0.7353,0.7396,0.7899,0.7555,0.7582,0.7601,0.7613,0.8711,0.8721,0,0,0,0,0,0,0.5752,0.5816,0.6386,0.6401,0.6416,0.6796,0.6703,0.7198,0.6894,0.6712,0.687,0.6858,0.7216,0.7261,0.7383,0.7868,0.7891,0.7556,0.7575,0.7588,0.7597,0,0,0,0,0,0,0,0.5779,0.5323,0.6318,0.6406,0.6419,0.6855,0.6864,0.6873,0.6892,0.6882,0.6872,0.6863,0.7399,0.7429,0.7459,0.7842,0,0,0.7553,0.7567,0,0,0,0,0,0,0,0,0.5298,0.5317,0.632,0.6326,0.6333,0.6856,0.6863,0.6871,0.689,0.6882,0.6874,0.6867,0.7407,0.7431,0.7456,0,0,0,0,0,0,0,0,0,0,0,0,0,0,0,0.632,0.6326,0,0.6857,0.6863,0.6869,0.6889,0.6882,0.6876,0.687,0.7414,0.7434,0.7454,0,0,0,0,0,0,0,0,0,0,0,0,0,0,0,0,0,0,0,0,0,0,0,0,0,0,0,0,0,0,0,0,0,0,0,0,0,0,0,0,0,0,0,0,0,0,0,0,0,0,0,0,0,0,0,0,0,0,0,0,0,0,0,0,0,0,0,0,0]}]]]